Weather History for Marianna, FL

Change the Weather History Date:

Friday, August 23, 2013

  Actual Average Record
Temperature  
Mean Temperature 79 °F 81 °F  
Max Temperature 88 °F 91 °F 102 °F (2011)
Min Temperature 70 °F 72 °F 62 °F (1997)
Degree Days  
Heating Degree Days 0    
Month to date heating degree days 0  
Since 1 June heating degree days 0  
Since 1 July heating degree days 0  
Cooling Degree Days 14    
Month to date cooling degree days 388  
Year to date cooling degree days 1738  
Since 1 June cooling degree days 1302  
Growing Degree Days 29 (Base 50)    
Moisture  
Dew Point 72 °F    
Average Humidity 80    
Maximum Humidity 100    
Minimum Humidity 59    
Precipitation  
Precipitation 0.07 in 0.15 in 2.26 in (2008)
Month to date precipitation 13.41 4.36  
Year to date precipitation 49.86 37.26  
Sea Level Pressure  
Sea Level Pressure 30.02 in    
Wind  
Wind Speed 3 mph (East)    
Max Wind Speed 14 mph    
Max Gust Speed 22 mph    
Visibility 10 miles    
Events Rain , Thunderstorm    
T = Trace of Precipitation, MM = Missing Value Source: NWS Daily Summary

Daily Weather History Graph

Daily Weather History Graph

Search for Another Location

Airport:

Trip Planner

Search our weather history database for the weather conditions in past years. The results will help you decide how hot, cold, wet, or windy it might be!

Date:

Astronomy

Aug. 23, 2013 Rise Set
Actual Time 6:11 AM CDT 7:14 PM CDT
Civil Twilight 5:46 AM CDT 7:39 PM CDT
Nautical Twilight 5:17 AM CDT 8:08 PM CDT
Astronomical Twilight 4:46 AM CDT 8:38 PM CDT
Moon 8:50 PM CDT (8/23) 8:50 AM CDT (8/23)
Length of Visible Light 13h 52m
Length of Day
13h 02m
Waning Gibbous, 91% of the Moon is Illuminated
Aug 23
Waning Gibbous
Aug 28
Last Quarter
Sep 5
New
Sep 12
First Quarter
Sep 19
Full

Hourly Weather History & Observations

Time (CDT) Temp. Heat Index Dew Point Humidity Pressure Visibility Wind Dir Wind Speed Gust Speed Precip Events Conditions
12:53 AM 73.0 °F - 71.1 °F 93% 30.04 in 10.0 mi Calm Calm - N/A   Clear
1:53 AM 72.0 °F - 71.1 °F 97% 30.03 in 10.0 mi Calm Calm - N/A   Clear
2:53 AM 71.1 °F - 70.0 °F 96% 30.01 in 10.0 mi Calm Calm - N/A   Clear
3:53 AM 71.1 °F - 70.0 °F 96% 30.01 in 10.0 mi NE 3.5 mph - N/A   Clear
4:53 AM 70.0 °F - 69.1 °F 97% 30.02 in 10.0 mi ENE 4.6 mph - N/A   Mostly Cloudy
5:53 AM 70.0 °F - 69.1 °F 97% 30.02 in 10.0 mi Calm Calm - N/A   Clear
6:53 AM 71.1 °F - 70.0 °F 96% 30.02 in 10.0 mi NE 4.6 mph - N/A   Clear
7:53 AM 73.9 °F - 72.0 °F 93% 30.03 in 10.0 mi Calm Calm - N/A   Partly Cloudy
8:53 AM 78.1 °F - 73.0 °F 84% 30.03 in 10.0 mi ENE 3.5 mph - N/A   Clear
9:53 AM 81.0 °F 85.8 °F 73.0 °F 77% 30.05 in 10.0 mi NNE 3.5 mph - N/A   Clear
10:53 AM 84.0 °F 90.2 °F 73.0 °F 69% 30.06 in 10.0 mi NNE 5.8 mph - N/A   Partly Cloudy
11:53 AM 84.9 °F 91.4 °F 73.0 °F 67% 30.04 in 10.0 mi East 5.8 mph - N/A   Partly Cloudy
12:53 PM 88.0 °F 95.6 °F 73.0 °F 61% 30.01 in 10.0 mi NE 6.9 mph - N/A   Partly Cloudy
1:53 PM 87.1 °F 93.6 °F 72.0 °F 61% 30.00 in 10.0 mi East 4.6 mph - N/A   Partly Cloudy
2:53 PM 86.0 °F 93.0 °F 73.0 °F 65% 29.99 in 10.0 mi Calm Calm - N/A   Clear
3:19 PM 86.0 °F 91.8 °F 71.6 °F 62% 30.00 in 10.0 mi Calm Calm - N/A Thunderstorm Partly Cloudy
3:34 PM 86.0 °F 91.8 °F 71.6 °F 62% 29.99 in 10.0 mi SSE 3.5 mph - N/A   Scattered Clouds
3:53 PM 84.0 °F 90.2 °F 73.0 °F 69% 29.99 in 10.0 mi SE 9.2 mph - N/A   Mostly Cloudy
4:06 PM 78.8 °F - 71.6 °F 78% 29.99 in 10.0 mi SSE 13.8 mph 21.9 mph 0.00 in Rain , Thunderstorm Light Rain
4:53 PM 77.0 °F - 73.9 °F 90% 30.00 in 10.0 mi West 6.9 mph - 0.06 in Rain , Thunderstorm Light Thunderstorms and Rain
5:17 PM 77.0 °F - 73.4 °F 89% 30.00 in 10.0 mi WSW 3.5 mph - 0.00 in Rain Light Rain
5:53 PM 75.9 °F - 73.9 °F 94% 29.99 in 10.0 mi Calm Calm - 0.01 in   Clear
6:53 PM 75.9 °F - 73.9 °F 94% 29.99 in 10.0 mi NE 4.6 mph - N/A   Partly Cloudy
7:53 PM 75.0 °F - 73.9 °F 96% 30.01 in 10.0 mi South 4.6 mph - N/A   Clear
8:53 PM 75.0 °F - 73.0 °F 94% 30.02 in 10.0 mi South 5.8 mph - N/A   Clear
9:53 PM 75.0 °F - 73.0 °F 94% 30.03 in 10.0 mi Calm Calm - N/A   Clear
10:53 PM 73.9 °F - 73.0 °F 97% 30.04 in 10.0 mi Calm Calm - N/A   Clear
11:53 PM 73.9 °F - 73.0 °F 97% 30.05 in 10.0 mi Calm Calm - N/A   Clear